Location: Observatory
(52.1446°N, 0.4624°W)
Time: 16:33:15
(UTC+00:00)

ISS - Pass Details

Date: 23 November 2023
Orbit: 415 x 417 km, 51.6° (Epoch: 06 December)

Event Time Altitude Azimuth Distance (km) Brightness Sun altitude
Rises 17:13:18 0° 238° (WSW) 2,354 1.9 -10.8°
Reaches altitude 10° 17:15:25 10° 233° (SW) 1,494 0.3 -11.1°
Maximum altitude 17:18:39 46° 159° (SSE) 569 -3.1 -11.6°
Enters shadow 17:20:48 19° 91° (E) 1,082 -2.3 -11.9°
